TimeHST,TemperatureF,Dew PointF,Humidity,Sea Level PressureIn,VisibilityMPH,Wind Direction,Wind SpeedMPH,Gust SpeedMPH,PrecipitationIn,Events,Conditions,WindDirDegrees,DateUTC
12:57 AM,73.4,68.0,83,29.98,7.0,East,8.1,-,N/A,,Mostly Cloudy,80,2013-10-02 10:57:00
1:57 AM,73.4,68.0,83,29.97,7.0,East,9.2,-,N/A,,Mostly Cloudy,100,2013-10-02 11:57:00
2:57 AM,73.4,68.0,83,29.96,7.0,Variable,4.6,-,N/A,,Scattered Clouds,0,2013-10-02 12:57:00
3:33 AM,75.2,68.0,78,29.97,6.2,East,4.6,-,N/A,,Mostly Cloudy,80,2013-10-02 13:33:00
3:57 AM,75.2,68.0,78,29.95,7.0,Variable,4.6,-,N/A,,Mostly Cloudy,0,2013-10-02 13:57:00
4:06 AM,75.2,66.2,73,29.96,6.2,East,8.1,-,N/A,,Scattered Clouds,80,2013-10-02 14:06:00
4:49 AM,75.2,66.2,73,29.96,6.2,Variable,4.6,-,N/A,,Mostly Cloudy,0,2013-10-02 14:49:00
4:57 AM,75.2,66.9,75,29.95,7.0,East,8.1,-,N/A,,Mostly Cloudy,80,2013-10-02 14:57:00
5:57 AM,75.2,68.0,78,29.96,7.0,East,5.8,-,N/A,,Mostly Cloudy,90,2013-10-02 15:57:00
6:04 AM,-9999,-9999,N/A,29.97,-9999.0,East,8.1,-,N/A,,Scattered Clouds,90,2013-10-02 16:04:00
6:22 AM,75.2,68.0,78,29.97,6.2,East,6.9,-,N/A,,Mostly Cloudy,90,2013-10-02 16:22:00
6:57 AM,75.2,68.0,78,29.96,7.0,East,9.2,-,N/A,,Mostly Cloudy,90,2013-10-02 16:57:00
7:57 AM,75.2,68.0,78,29.97,7.0,Variable,5.8,-,N/A,,Overcast,0,2013-10-02 17:57:00
8:36 AM,75.2,69.8,83,30.00,6.2,ESE,9.2,-,N/A,,Scattered Clouds,110,2013-10-02 18:36:00
8:57 AM,80.4,69.1,68,29.99,7.0,East,10.4,-,N/A,,Scattered Clouds,80,2013-10-02 18:57:00
9:57 AM,83.3,69.1,62,30.00,7.0,East,9.2,-,N/A,,Mostly Cloudy,100,2013-10-02 19:57:00
10:57 AM,83.3,68.0,60,29.99,7.0,ESE,12.7,16.1,N/A,,Scattered Clouds,110,2013-10-02 20:57:00
11:57 AM,83.3,69.1,62,29.96,7.0,East,10.4,16.1,N/A,,Scattered Clouds,80,2013-10-02 21:57:00
12:57 PM,84.6,68.0,57,29.94,7.0,East,11.5,18.4,N/A,,Mostly Cloudy,90,2013-10-02 22:57:00
1:57 PM,83.3,70.0,64,29.93,7.0,ENE,10.4,17.3,N/A,,Mostly Cloudy,60,2013-10-02 23:57:00
2:57 PM,83.3,68.0,60,29.92,7.0,East,8.1,-,N/A,,Scattered Clouds,80,2013-10-03 00:57:00
3:57 PM,81.1,68.0,64,29.92,7.0,East,9.2,16.1,N/A,,Mostly Cloudy,80,2013-10-03 01:57:00
4:57 PM,81.1,68.0,64,29.92,7.0,East,9.2,17.3,N/A,,Mostly Cloudy,90,2013-10-03 02:57:00
5:57 PM,79.3,66.0,64,29.94,7.0,East,9.2,-,N/A,,Mostly Cloudy,80,2013-10-03 03:57:00
6:57 PM,78.1,66.0,66,29.94,7.0,Variable,5.8,-,N/A,,Mostly Cloudy,0,2013-10-03 04:57:00
7:04 PM,78.8,68.0,69,29.96,6.2,East,8.1,-,N/A,,Mostly Cloudy,80,2013-10-03 05:04:00
7:57 PM,77.4,68.0,73,29.96,7.0,East,10.4,-,N/A,,Mostly Cloudy,100,2013-10-03 05:57:00
8:04 PM,77.0,68.0,74,29.98,6.2,East,9.2,-,N/A,,Partly Cloudy,90,2013-10-03 06:04:00
8:57 PM,77.4,68.0,73,29.98,7.0,East,11.5,20.7,N/A,,Scattered Clouds,90,2013-10-03 06:57:00
9:00 PM,-9999,-9999,N/A,-9999,-9999.0,North,-9999.0,-,N/A,,Unknown,0,2013-10-03 07:00:00
9:57 PM,77.7,68.0,72,29.99,7.0,East,9.2,19.6,N/A,,Mostly Cloudy,100,2013-10-03 07:57:00
10:57 PM,77.7,68.0,72,29.98,7.0,East,9.2,16.1,N/A,,Mostly Cloudy,90,2013-10-03 08:57:00
11:57 PM,77.4,69.1,76,29.97,7.0,East,9.2,-,N/A,,Mostly Cloudy,100,2013-10-03 09:57:00